Regional Weather Roundup
Issued by NWS San Diego, CA

Home | Current Version | Previous Version | Text Only | Print | Product List | Glossary On
Versions: 1 2 3 4 5 6 7 8 9 10 11 12 13 14 15 16 17 18 19 20 21 22 23 24 25 26 27 28 29 30 31 32 33 34 35 36 37 38 39 40 41 42 43 44 45 46 47 48 49 50
000
ASUS46 KSGX 240311
RWRSGX
SAN DIEGO HOURLY WEATHER ROUNDUP
NATIONAL WEATHER SERVICE SAN DIEGO CA
800 PM PDT WED AUG 23 2017

NOTE: "FAIR" INDICATES FEW OR NO CLOUDS BELOW 12,000 FEET WITH NO
SIGNIFICANT WEATHER AND/OR OBSTRUCTIONS TO VISIBILITY.

CAZ042-043-060-061-PZZ750-775-240400-

GREATER SAN DIEGO AREA

CITY           SKY/WX    TMP DP  RH WIND       PRES   REMARKS
SAN DIEGO AP   CLOUDY    69  61  75 W7        29.94R
NATIONAL CITY    N/A     68  63  84 SW1       29.95R
IMPERIAL BEACH CLOUDY    67  60  78 W5        29.93R
BROWN FIELD    CLOUDY    66  61  84 W7        29.93R
MIRAMAR MCAS   CLOUDY    70  59  68 SW5       29.93R
MONTGOMERY FLD CLOUDY    68  60  75 SW5       29.93R
GILLESPIE FLD  CLOUDY    68  61  77 W8        29.93R

$$

NORTH SAN DIEGO COUNTY

CITY           SKY/WX    TMP DP  RH WIND       PRES   REMARKS
CAMP PENDLETON CLOUDY    58  58 100 VRB3      29.92R
OCEANSIDE AP   CLOUDY    68  61  78 SW5       29.91S
OCEANSIDE HBR    N/A     65  61  85 W2        29.95R
VISTA            N/A     66  61  84 CALM      29.90R
CARLSBAD       CLOUDY    66  61  84 SE3       29.92R
DEL MAR          N/A     65  61  85 CALM      29.94R
LA JOLLA SCRIP   N/A     65  62  88 CALM      29.92R
FALLBROOK        N/A     66  65  96 CALM      29.93R
ESCONDIDO        N/A     67  62  83 S2        29.93R
POWAY            N/A     66  60  81 CALM      29.93R

$$

EAST SAN DIEGO COUNTY

CITY           SKY/WX    TMP DP  RH WIND       PRES   REMARKS
RAMONA         CLOUDY    64  62  93 W6        29.94R
SANTEE LAKES     N/A     67  62  83 W3        29.90S
LA MESA          N/A     66  61  84 CALM      29.85S
JAMUL            N/A     66  61  85 CALM      29.91R
DESCANSO N       N/A     64  58  81 CALM      29.77R
CAMPO            N/A     66  59  78 SW6       29.93R

$$

ORANGE COUNTY AND THE LOS ANGELES BASIN

CITY           SKY/WX    TMP DP  RH WIND       PRES   REMARKS
JOHN WAYNE AP  CLOUDY    69  63  81 SW8       29.91R
LAKE FOREST FR   N/A     67  58  73 CALM      29.80R
HUNTINGTON BCH   N/A     68  64  87 W3        29.91S
LOS ALAMITOS   PTCLDY    69  61  77 W8        29.90R
FULLERTON      CLEAR     70  62  76 S8        29.89R
LONG BEACH     CLEAR     69  62  78 W8        29.90R
L.A. AP        CLOUDY    66  62  87 W12       29.90S
L.A. DOWNTOWN  MOCLDY    68  61  78 CALM      29.90S

$$

THE INLAND EMPIRE

CITY           SKY/WX    TMP DP  RH WIND       PRES   REMARKS
CORONA         CLEAR     70  61  73 W9        29.89R
CHINO          PTCLDY    71  60  68 W10       29.90R
ONTARIO        PTCLDY    71  60  68 W10       29.90R
SAN BERNARDINO CLEAR     77  57  50 SW8       29.90R
RIVERSIDE AP   CLEAR     72  61  68 W10       29.89R
MORENO VALLEY    N/A     75  63  65 W3        28.02R
MARCH ARB      CLEAR     73  59  63 NW7       29.91R
HORSETHIEF CYN   N/A     74  56  52 N6        29.87R
PERRIS           N/A     75  62  63 NW1       29.89R
HEMET EAST       N/A     76  58  54 W5        29.90R
FRENCH VALLEY  FAIR      66  59  77 S9        29.94R
TEMECULA         N/A     68  62  82 SW2       29.95R

$$

SAN BERNARDINO AND RIVERSIDE COUNTY MOUNTAINS

CITY           SKY/WX    TMP DP  RH WIND       PRES   REMARKS
BIG BEAR AP    CLEAR     61  41  48 W7        30.19S
PINE COVE        N/A     64  53  68 CALM      29.79S

$$

SOUTHERN DESERT INCLUDING THE COACHELLA VALLEY

CITY           SKY/WX    TMP DP  RH WIND       PRES   REMARKS
PALM SPRINGS   CLEAR     95  58  28 NW23      29.72R
THOUSAND PALMS   N/A     93  58  30 NW17      29.67R
PALM DESERT      N/A     96  60  30 CALM        N/A  HX  96
THERMAL        CLEAR     98  56  24 NW10      29.65R HX  96
BLYTHE         CLEAR    100  58  24 S13       29.70R HX  99
IMPERIAL AP    PTCLDY    99  60  27 SW10      29.67R HX  99
EL CENTRO NAS  PTCLDY    97  48  18 W15       29.69R
YUMA AZ        CLEAR     96  60  30 S8        29.71R HX  96
MEXICALI       CLEAR     95  57  28 SE7       29.69R

$$

UPPER DESERT

CITY           SKY/WX    TMP DP  RH WIND       PRES   REMARKS
VICTORVILLE AP CLEAR     81  41  24 S7        29.92R
HESPERIA         N/A     76  55  47 W3        29.87S
PALMDALE       CLEAR     82  43  25 W16       29.92R
LANCASTER      CLEAR     82  43  25 W18       29.90R
EDWARDS AFB    PTCLDY    85  40  20 SW17      29.86R
DAGGETT        PTCLDY    93  48  21 SW12      29.80R
29 PALMS N     CLEAR     91  48  22 SW10      29.88R

$$

REGIONAL REPORTS

CITY           SKY/WX    TMP DP  RH WIND       PRES   REMARKS
SANTA BARBARA  CLEAR     64  61  90 SE6       29.87S
SANDBERG       CLEAR     73  43  33 SW5       30.08R
LAS VEGAS NV   CLOUDY    87  55  33 S8        29.83S
PHOENIX AZ     MOCLDY    89  63  41 S25G40    29.80R
TIJUANA        CLOUDY    64  61  88 W3        29.95S
ENSENADA NW      N/A     66  32  27 CALM      29.90R

$$

OFFSHORE ISLANDS

CITY           SKY/WX    TMP DP  RH WIND       PRES   REMARKS
CATALINA ARPT  FOG       59  59 100 SW9       29.94R VSB 1/4
SAN NICOLAS IS CLOUDY   N/A N/A N/A W14G23    29.92R

$$

MARINE AND OFFSHORE BUOY REPORTS

STATION/POSITION SKY/WX   TEMP    WIND        PRES    VSBY  SWELL
                          AIR SEA DIR/SP/G                  HT/PER/DIR
                          (F)     (DEG/KT/KT) (MB)    (MI)  (FT/S/D)
TANNER BANKS               65 67  300/ 14/ 17 1013.4R         3/280/10
S CLEMENTE BASIN           66 71  290/ 12/ 14 1013.3R         2/220/10
SAN NICOLAS IS.               65                N/A           2/280/13
SO. S. ROSA ISLA           63 65  290/ 17/ 21 1012.6S         3/250/10
W. S. BARBARA CH           62 62  310/ 21/ 25 1012.3R         3/240/10
M. S. BARBARA CH           63 63  260/ 16/ 19 1012.3S         2/260/ 8
S. MONICA BASIN               70  300/  4/  6 1012.1R         3/210/10
S PEDRO CHANNEL               70                N/A           2/150/14
CMP PENDLETON NS              69                N/A           2/210/11
OCEANSIDE OFFSHR              71                N/A           2/180/14
TORREY PINES OTR              72                N/A           2/210/12
SAN DIEGO BAY                 74              1013.6R
POINT LOMA SOUTH              69                N/A           2/210/11

$$





USA.gov is the U.S. government's official web portal to all federal, state and local government web resources and services.